[[{"header":{"parameterUnit":"m.s-1","parameterCategory":1,"la1":30.2991,"la2":30.254,"lo1":-89.0895,"lo2":-89.0444,"dy":0.0017,"dx":0.0017,"nx":28,"ny":28,"refTime":"2025-07-10T21:00:00:Z","depth":0,"parameterNumber":2,"parameterNumberName":"U-component_of_WINDS"},"data":[0,0,0,0,0,0,0,0,0,0,0,0,0,0,0,0,0,0,0,0,0,0,0,0,0,0,0,0,0,0,0,0,0,0,0,0,0,0,0,0,0,0,0,0,0,0,0,0,0,0,0,0,0,0,0,0,0,0,1.807,1.8072,0,1.8216,1.8217,1.8219,1.8248,1.8247,1.8246,1.8245,1.8398,1.8403,1.8408,0,0,0,0,0,0,0,0,0,0,0,0,0,1.7822,1.7826,1.807,1.8072,1.8074,1.8215,1.8217,1.8219,1.8248,1.8247,1.8245,1.8244,1.8397,1.8403,1.8409,0,0,0,0,0,0,0,0,0,0,0,0,0,1.7945,1.7827,1.807,1.8105,1.811,1.8215,1.8218,1.822,1.8249,1.8247,1.8245,1.8243,1.8395,1.8402,1.841,1.8492,0,0,1.8433,1.8437,0,0,0,0,0,0,0,0,1.7938,1.7954,1.8098,1.8103,1.8108,1.8212,1.8186,1.8311,1.8249,1.8196,1.8245,1.8243,1.8338,1.835,1.8381,1.8499,1.8505,1.8434,1.8439,1.8442,1.8444,0,0,0,0,0,0,0,1.7929,1.7948,1.8128,1.81,1.8106,1.8115,1.8131,1.821,1.8275,1.82,1.8203,1.8219,1.834,1.8374,1.8385,1.8508,1.8434,1.8441,1.8445,1.8448,1.87,1.8701,0,0,0,0,0,0,1.7914,1.794,1.8123,1.8132,1.8017,1.8121,1.8138,1.818,1.8274,1.8287,1.8221,1.822,1.8362,1.8376,1.8391,1.8492,1.8442,1.8449,1.8454,1.8698,1.87,1.8702,0,0,0,0,0,0,1.7908,1.793,1.8117,1.8037,1.8062,1.8127,1.8174,1.8184,1.8218,1.8289,1.8302,1.8243,1.8361,1.838,1.8466,1.8498,1.8453,1.846,1.8695,1.8698,1.8701,1.8696,0,0,0,0,0,0,1.7901,1.7928,1.7958,1.8037,1.8066,1.8189,1.8176,1.8188,1.823,1.8231,1.8313,1.8325,1.8361,1.8454,1.8474,1.8508,1.8466,1.8693,1.8697,1.87,1.8694,1.8699,1.8703,0,0,0,0,0,1.7892,1.7952,1.796,1.7982,1.8105,1.8191,1.8207,1.8245,1.8233,1.8265,1.8311,1.8323,1.8491,1.8463,1.8485,1.8522,1.8691,1.8695,1.87,1.8692,1.8698,1.8703,0,0,0,0,0,0,1.7877,1.7963,1.7972,1.806,1.8117,1.8195,1.8237,1.8251,1.8314,1.8312,1.8359,1.8377,1.846,1.85,1.8467,1.8606,1.8591,1.86,1.8577,1.8583,1.8588,1.8576,1.8472,0,0,0,0,0,1.7883,1.7944,1.8017,1.8087,1.8115,1.8171,1.821,1.8234,1.8296,1.8321,1.8374,1.8435,1.8502,1.8545,1.8611,1.87,1.8719,1.8737,1.8741,1.8745,1.8752,1.8802,1.8811,1.8717,1.8717,1.8717,0,0,1.7898,1.7953,1.7989,1.8085,1.8133,1.8196,1.8191,1.8258,1.8306,1.8332,1.8416,1.8456,1.8528,1.8616,1.8657,1.8651,1.8782,1.875,1.8752,1.8758,1.8808,1.8816,1.8824,1.872,1.872,1.8719,0,0,1.7957,1.8004,1.8067,1.8115,1.8186,1.8223,1.8238,1.8314,1.8341,1.8426,1.8447,1.8505,1.8619,1.8669,1.8709,1.8786,1.8799,1.8807,1.883,1.8879,1.8886,1.8893,1.892,1.8929,1.8814,1.8814,1.8814,0,1.7966,1.806,1.8099,1.8164,1.8206,1.8232,1.8297,1.8341,1.8431,1.846,1.8452,1.8596,1.8646,1.8745,1.8764,1.8796,1.8815,1.8797,1.8882,1.8889,1.8896,1.8922,1.8932,1.8814,1.8814,1.8814,1.8814,0,1.8068,1.8133,1.8176,1.826,1.8308,1.8373,1.8422,1.8466,1.8486,1.8524,1.861,1.8671,1.8749,1.8774,1.8796,1.8877,1.8871,1.8872,1.8857,1.8904,1.893,1.894,1.8815,1.8814,1.8814,1.8814,0,0,1.8121,1.8225,1.824,1.8279,1.8359,1.8411,1.8478,1.8552,1.8589,1.865,1.8707,1.8803,1.8804,1.885,1.8877,1.892,1.8976,1.8915,1.8918,1.8924,1.907,1.9068,1.9079,1.8986,1.8988,1.899,1.9064,0,1.8189,1.8307,1.8343,1.8443,1.8503,1.8528,1.8587,1.8643,1.868,1.8738,1.878,1.8847,1.8843,1.8871,1.8914,1.896,1.9006,1.8956,1.904,1.9043,1.9021,1.9093,1.9092,1.9159,1.9074,1.9076,1.9077,0,1.8284,1.8345,1.8449,1.8522,1.8549,1.86,1.8671,1.8726,1.8791,1.8816,1.8866,1.889,1.8962,1.8943,1.9042,1.9007,1.9044,1.9072,1.9076,1.9085,1.9062,1.9103,1.9181,1.9191,1.9093,1.9092,1.9091,0,1.8311,1.8419,1.8496,1.8528,1.8615,1.865,1.8689,1.8752,1.8794,1.8857,1.8885,1.8956,1.8995,1.905,1.9093,1.9075,1.9189,1.9174,1.9212,1.921,1.9234,1.9232,1.9318,1.9259,1.9259,1.9258,1.9258,0,1.8382,1.8445,1.8509,1.8556,1.8628,1.867,1.874,1.878,1.8836,1.8892,1.8919,1.8971,1.9024,1.9084,1.9118,1.9195,1.9213,1.9235,1.9243,1.9232,1.9229,1.9257,1.9253,1.9261,1.9261,1.926,1.926,0,1.8424,1.847,1.8555,1.8629,1.865,1.8699,1.8764,1.8811,1.8849,1.892,1.8939,1.8999,1.9071,1.9119,1.9211,1.9234,1.9318,1.9326,1.9295,1.9299,1.9334,1.933,1.944,1.9457,1.9387,1.9387,1.9388,0,1.8466,1.8515,1.8595,1.8634,1.8671,1.8734,1.8777,1.8821,1.8865,1.8942,1.898,1.9053,1.9114,1.9227,1.928,1.9351,1.936,1.9394,1.9371,1.9358,1.936,1.9356,1.9361,1.9397,1.9398,1.9398,1.9399,0,1.8536,1.8556,1.8616,1.8685,1.8735,1.8791,1.8848,1.8879,1.8933,1.8981,1.9053,1.91,1.9194,1.9266,1.9341,1.9382,1.94,1.9405,1.9418,1.9407,1.9387,1.9397,1.9305,1.9403,1.9402,1.9402,1.9402,1.9402,1.858,1.8624,1.8687,1.8753,1.88,1.8852,1.89,1.8943,1.9004,1.9082,1.9105,1.9181,1.9245,1.9348,1.939,1.945,1.9447,1.9465,1.947,1.9473,1.9473,1.9377,1.9465,1.9465,1.9465,1.9465,1.9465,0,1.865,1.8692,1.8752,1.883,1.8882,1.8893,1.8956,1.8999,1.9065,1.9123,1.9181,1.9265,1.9335,1.9393,1.9466,1.9503,1.9513,1.9521,1.9519,1.9528,1.9472,1.9454,1.9512,1.9512,1.9512,1.9512,1.9512,1.9512,1.8693,1.8768,1.8796,1.8895,1.8937,1.9009,1.9045,1.9093,1.9139,1.9231,1.9289,1.9326,1.9384,1.9461,1.9526,1.9542,1.9567,1.9573,1.959,1.9537,1.9532,1.9526,1.9509,1.9578,1.9578,1.964,1.9641,1.9641]},{"header":{"parameterUnit":"m.s-1","parameterCategory":1,"la1":30.2991,"la2":30.254,"lo1":-89.0895,"lo2":-89.0444,"dy":0.0017,"dx":0.0017,"nx":28,"ny":28,"refTime":"2025-07-10T21:00:00:Z","depth":0,"parameterNumber":3,"parameterNumberName":"V-component_of_WINDS"},"data":[0,0,0,0,0,0,0,0,0,0,0,0,0,0,0,0,0,0,0,0,0,0,0,0,0,0,0,0,0,0,0,0,0,0,0,0,0,0,0,0,0,0,0,0,0,0,0,0,0,0,0,0,0,0,0,0,0,0,2.9879,2.9879,0,2.9873,2.9873,2.9873,2.989,2.9891,2.9891,2.9892,2.9882,2.9881,2.9881,0,0,0,0,0,0,0,0,0,0,0,0,0,2.9903,2.9902,2.9879,2.9879,2.9879,2.9873,2.9873,2.9873,2.989,2.9891,2.9891,2.9892,2.9882,2.9881,2.9881,0,0,0,0,0,0,0,0,0,0,0,0,0,2.9894,2.9902,2.9879,2.9887,2.9888,2.9873,2.9873,2.9872,2.989,2.9891,2.9892,2.9892,2.9883,2.9882,2.988,2.9857,0,0,2.9877,2.9876,0,0,0,0,0,0,0,0,2.9894,2.9893,2.9886,2.9886,2.9887,2.9883,2.9877,2.9867,2.989,2.9889,2.9892,2.9893,2.9882,2.9881,2.9877,2.9856,2.9856,2.9877,2.9876,2.9876,2.9875,0,0,0,0,0,0,0,2.9895,2.9893,2.9876,2.9886,2.9886,2.989,2.9889,2.9876,2.9881,2.9889,2.989,2.989,2.9882,2.9879,2.9877,2.9856,2.9877,2.9876,2.9875,2.9875,2.9812,2.9812,0,0,0,0,0,0,2.9895,2.9894,2.9877,2.9876,2.9893,2.9889,2.9888,2.9883,2.9881,2.9881,2.9889,2.989,2.988,2.9879,2.9877,2.9848,2.9876,2.9874,2.9874,2.9813,2.9812,2.9811,0,0,0,0,0,0,2.9895,2.9893,2.9877,2.9885,2.9883,2.9887,2.9882,2.9883,2.9879,2.9881,2.9881,2.9885,2.9881,2.9879,2.9861,2.9848,2.9874,2.9873,2.9815,2.9813,2.9812,2.9789,0,0,0,0,0,0,2.9896,2.9893,2.9885,2.9885,2.9883,2.9862,2.9881,2.9882,2.9878,2.988,2.9877,2.9877,2.9881,2.9863,2.986,2.9846,2.9872,2.9816,2.9814,2.9812,2.9791,2.9787,2.9784,0,0,0,0,0,2.9897,2.9879,2.9885,2.9882,2.9873,2.9862,2.986,2.9866,2.9877,2.9868,2.9868,2.9877,2.985,2.9861,2.9858,2.9844,2.9817,2.9814,2.9812,2.9793,2.9788,2.9784,0,0,0,0,0,0,2.9876,2.9879,2.9885,2.9867,2.9864,2.9865,2.9854,2.9861,2.9854,2.9856,2.9863,2.9862,2.9843,2.9842,2.9854,2.982,2.9835,2.9832,2.9821,2.9817,2.9813,2.9813,2.9871,0,0,0,0,0,2.987,2.9861,2.9864,2.9847,2.9845,2.985,2.9845,2.985,2.9847,2.9845,2.9844,2.984,2.983,2.9823,2.9815,2.9792,2.979,2.978,2.9777,2.9774,2.977,2.9756,2.9752,2.9804,2.9804,2.9804,0,0,2.9856,2.9856,2.985,2.9843,2.9841,2.9831,2.9848,2.9837,2.9829,2.9843,2.9827,2.9826,2.9821,2.98,2.9791,2.9799,2.9756,2.9771,2.9768,2.9767,2.9754,2.9749,2.9744,2.9803,2.9803,2.9803,0,0,2.9825,2.9825,2.9811,2.9809,2.9806,2.9809,2.9806,2.9805,2.9805,2.9789,2.9799,2.9789,2.9773,2.9768,2.9764,2.9731,2.9738,2.9728,2.9708,2.9694,2.969,2.9686,2.9673,2.9668,2.9725,2.9725,2.9725,0,2.9808,2.9794,2.9802,2.979,2.9786,2.9799,2.9784,2.9781,2.9775,2.9771,2.978,2.9759,2.9757,2.9734,2.9726,2.9723,2.9718,2.9728,2.969,2.9687,2.9683,2.9671,2.9666,2.9724,2.9724,2.9724,2.9724,0,2.9772,2.9762,2.9751,2.9746,2.974,2.9726,2.9731,2.9725,2.973,2.9732,2.9714,2.9712,2.9702,2.9698,2.9702,2.9675,2.968,2.969,2.9704,2.9677,2.9665,2.966,2.9722,2.9722,2.9723,2.9723,0,0,2.9727,2.9727,2.9723,2.972,2.9718,2.971,2.9696,2.9688,2.9681,2.9676,2.9664,2.9649,2.9658,2.9653,2.9657,2.9646,2.9617,2.9656,2.9656,2.9648,2.9585,2.9577,2.9572,2.9623,2.9622,2.9621,2.9585,0,2.9696,2.9674,2.9681,2.9657,2.9647,2.966,2.9647,2.9644,2.9645,2.9635,2.9636,2.9625,2.9638,2.9635,2.9624,2.9623,2.9605,2.9626,2.9609,2.9608,2.9609,2.9566,2.9557,2.9524,2.9581,2.958,2.9579,0,2.9656,2.9651,2.9627,2.9626,2.9622,2.9611,2.9603,2.9595,2.959,2.9592,2.9586,2.9592,2.9577,2.9593,2.9571,2.9585,2.9579,2.9577,2.9576,2.9574,2.9591,2.956,2.9513,2.9507,2.9572,2.9573,2.9574,0,2.9624,2.9611,2.9595,2.9592,2.9591,2.9583,2.9581,2.9578,2.9572,2.9565,2.9561,2.9552,2.9546,2.9538,2.9541,2.9553,2.9518,2.9534,2.9517,2.9516,2.9508,2.9508,2.9457,2.9506,2.9506,2.9506,2.9506,0,2.9588,2.9572,2.958,2.957,2.9552,2.956,2.9542,2.9542,2.9539,2.9528,2.9537,2.9526,2.9532,2.9521,2.9523,2.9503,2.9501,2.95,2.9501,2.9499,2.9499,2.9494,2.9495,2.9505,2.9505,2.9505,2.9505,0,2.9549,2.9554,2.9536,2.9537,2.9536,2.9523,2.9523,2.9512,2.9514,2.9499,2.9496,2.9499,2.9486,2.9489,2.9474,2.9476,2.9451,2.9455,2.9452,2.9453,2.9434,2.9435,2.9377,2.9369,2.9424,2.9424,2.9423,0,2.9524,2.9513,2.9512,2.9506,2.9504,2.9494,2.9488,2.9495,2.9488,2.9482,2.9472,2.946,2.9451,2.943,2.9429,2.9418,2.942,2.9401,2.9419,2.9416,2.9418,2.9418,2.9416,2.9397,2.9396,2.9396,2.9395,0,2.948,2.9483,2.9475,2.9468,2.9461,2.9455,2.945,2.9444,2.945,2.9441,2.9429,2.9422,2.9408,2.9395,2.9385,2.9382,2.9388,2.939,2.9385,2.9382,2.938,2.9379,2.9441,2.9391,2.9391,2.9392,2.9392,2.9392,2.9446,2.9436,2.9434,2.9424,2.9421,2.9416,2.9406,2.9407,2.9397,2.9387,2.9391,2.9377,2.9371,2.9358,2.9353,2.9341,2.9348,2.9341,2.9339,2.9337,2.9334,2.9384,2.9339,2.9339,2.9339,2.9339,2.934,0,2.9401,2.94,2.9392,2.9385,2.9377,2.9386,2.938,2.9372,2.936,2.9355,2.9346,2.9331,2.9319,2.9317,2.9305,2.9295,2.9298,2.9292,2.9292,2.929,2.9329,2.9334,2.9289,2.9289,2.9289,2.9289,2.9289,2.9289,2.9377,2.936,2.9362,2.9343,2.9342,2.9329,2.9325,2.9319,2.9315,2.9299,2.9289,2.9289,2.9284,2.9272,2.926,2.926,2.9254,2.9246,2.9247,2.9283,2.9288,2.9293,2.9297,2.9245,2.9245,2.9209,2.9209,2.9208]}]]